Retour au catalogue

STARLINK-36860

ActifCommunicationsVLEO
NORAD 67935·PAYLOAD·🇺🇸 United States

Lancé Feb 24, 2026 depuis Vandenberg Space Force Base

Loading…

Prochains Passages (prochaines 24 heures)

TLE

FraisSource: CelesTrak SupGP

Époque: Sep 14, 2026, 21:19 UTC

1 67935C 26037D   26257.88868056  .00017862  00000+0  64671-3 0  2576
2 67935  43.0032 202.5182 0001111 256.4874  82.8487 15.27583710    11

Suivez STARLINK-36860 en temps réel avec AllMySat

Download on the App Store